Powrót do katalogu

STARLINK-5716

AktywnyŁącznośćVLEO
NORAD 56504·PAYLOAD·🇺🇸 United States

Wystrzelony May 14, 2023 z Cape Canaveral Space Force Station

Loading…

Następne Przeloty (najbliższe 24 godziny)

TLE

ŚwieżeSource: CelesTrak SupGP

Epoka: Sep 14, 2026, 22:30 UTC

1 56504C 23065B   26257.93798611  .00009082  00000+0  32893-3 0  2575
2 56504  43.0001 223.6957 0001161 253.9044  82.8377 15.27574418    10

Śledź STARLINK-5716 w czasie rzeczywistym z AllMySat

Download on the App Store